Погода в Хромцове

Россия / Ивановская область     57°13′14″N   40°58′12″E
темп.,
°C
ветер,
м/с
пор.,
м/с
влажн.,
%
обл.,
%
осадки,
мм/ч
давл.,
гПа
погр.,
м
9 декабря, чт
чт900:00−14с3797100 0.0 1024138
03:00−12ссв3793100 0.0 1024187
06:00−11с4894100 0.1 1024241
09:00−10с3793100 0.1 1025231
12:00−11с48935 0.0 1026224
15:00−13ссз379518 0.0 1027130
18:00−16ссз359862 0.0 102976
21:00−17с259961 0.0 103057
10 декабря, пт
пт1000:00−18ссз249950 0.0 103252
03:00−18с239922 0.0 103347
06:00−19ссв239922 0.0 103443
09:00−20ссв119972 0.0 103613
12:00−13всв239363 0.0 103698
15:00−14всв229716 0.0 103619
18:00−16вюв259721 0.0 103765
21:00−16в269719 0.0 103879
11 декабря, сб
сб1100:00−15вюв389716 0.0 1039122
03:00−16вюв37975 0.0 103996
06:00−16вюв38965 0.0 1039133
09:00−16юв310935 0.0 1040164
12:00−12юв411875 0.0 1039257
15:00−12вюв410885 0.0 1039212
18:00−13юв411885 0.0 1039193
21:00−14юв3108845 0.0 1040182
12 декабря, вс
вс1200:00−14юв411895 0.0 1039170
03:00−14юв4119039 0.0 1039165
06:00−15юв410915 0.0 1039152
09:00−15ююв410928 0.0 1039139
12:00−10ююв388657 0.0 1039187
15:00−10ююв368991 0.0 103897
18:00−11ююв389079 0.0 1038116
21:00−11ююв3891100 0.0 1037120
13 декабря, пн
пн1300:00−11ю3792100 0.0 1037110
03:00−11ю3791100 0.0 1036111
06:00−10ююв3890100 0.0 1035124
09:00−10ююв3790100 0.0 1035134
12:00−7ю3986100 0.0 1034214
15:00−6ююв3887100 0.0 1033190
18:00−6ю3988100 0.0 1032196
21:00−6ю3889100 0.0 1032176